Location: Czu?�w
(50.1404°N, 18.9919°E)
Time: 03:36:05
(UTC+00:00)

USA 305 - Pass Details

Date: 27 October 2020
Orbit: 569 x 577 km, 54.0° (Epoch: 22 November)

Event Time Altitude Azimuth Distance (km) Brightness Sun altitude
Rises 17:46:38 0° 295° (WNW) 2,787 7.7 -22.6°
Reaches altitude 10° 17:48:55 10° 291° (WNW) 1,885 6.6 -23.0°
Maximum altitude 17:53:08 58° 213° (SSW) 668 3.2 -23.6°
Enters shadow 17:53:24 57° 195° (SSW) 677 3.2 -23.7°
